{"data":{"norad_id":65152,"intl_designator":"2025-171W","name":"KUIPER-00115","alt_names":[],"object_type":"PAYLOAD","status":"ACTIVE","operator":null,"country":"US","launch_date":"2025-08-11","launch_site_code":"AFETR","launch_vehicle":null,"mission":null,"orbit_class":"UNKNOWN","rcs_meters":null,"size_class":null,"mass_kg":null,"dimensions":null,"purposes":[],"wikipedia_slug":null,"has_3d_model":false,"image_url":null,"decayed_at":null,"tle_current":{"epoch":"2026-05-24T20:10:00.739776Z","epoch_age_seconds":78965,"freshness":"FRESH","line1":"1 65152U 25171W   26144.84028634  .00004483  00000+0  61639-3 0  9993","line2":"2 65152  51.9012 191.3581 0000109 127.8132 232.2841 14.79950323 44026","mean_motion":14.79950323,"eccentricity":1.09e-5,"inclination_deg":51.9012,"raan_deg":191.3581,"arg_perigee_deg":127.8132,"mean_anomaly_deg":232.2841,"bstar":0.00061639,"rev_number":4402,"period_min":97.300563243297,"perigee_km":629.40456225445,"apogee_km":629.55732832565,"semimajor_km":7007.61794529,"source":"CELESTRAK","updated_at":"2026-05-25T13:38:05.170631Z"}}}